Regional Weather Roundup
Issued by NWS Grand Forks, ND

Home | Current Version | Previous Version | Text Only | Print | Product List | Glossary On
Versions: 1 2 3 4 5 6 7 8 9 10 11 12 13 14 15 16 17 18 19 20 21 22 23 24 25 26 27 28 29 30 31 32 33 34 35 36 37 38 39 40 41 42 43 44 45 46 47 48 49 50
000
ASUS43 KFGF 201910
RWRFGF
PRAIRIE TO PINES  WEATHER ROUNDUP
NATIONAL WEATHER SERVICE EASTERN NORTH DAKOTA/GRAND FORKS ND
200 PM CDT MON OCT 20 2014

 **SATELLITE DATA USED TO AUGMENT SKY COVER AT AUTOMATED STATIONS**
 *****  WEATHER ACROSS EASTERN NORTH DAKOTA  *****

CITY           SKY/WX    TMP DP  RH WIND       PRES   REMARKS
GRAND FORKS    SUNNY     56  42  59 NE6       30.05F
GRAND FRKS AFB SUNNY     56  44  62 NE5       30.06F
GRAND FRKS NWS   N/A     55 N/A N/A NE7         N/A
DEVILS LAKE    SUNNY     61  43  51 S9        30.00F
FARGO          SUNNY     61  44  53 N8        30.04F
WAHPETON ARPT  CLEAR     61  37  41 NW7       30.04F
$$

 ***** WEATHER ACROSS CENTRAL AND WESTERN NORTH DAKOTA  *****

CITY           SKY/WX    TMP DP  RH WIND       PRES   REMARKS
BISMARCK       SUNNY     72  34  24 S13G23    30.01F
MINOT          SUNNY     69  36  29 S17       29.96F
JAMESTOWN      SUNNY     65  40  39 E3        30.03F
MINOT AFB      SUNNY     70  36  29 S20G25    29.94F
GARRISON         N/A     69  39  33 S15       29.97F
WILLISTON      SUNNY     74  40  29 SE13      29.89F
DICKINSON      SUNNY     71  41  33 S22       29.94F
HETTINGER      SUNNY     70  39  32 S16G23    29.98F
$$

 *****  OTHER AIRPORT OBSERVATIONS IN OUR AREA  *****

CITY           SKY/WX    TMP DP  RH WIND       PRES   REMARKS
WALHALLA         N/A     48  46  93 E7        30.05F
GRAFTON AIRPOR FAIR      54  41  62 NE3       30.05F
VALLEY CITY AR FAIR      61  41  48 CALM      30.04F
CANDO          FAIR      63  45  51 S10       30.01F
CAVALIER APRT  FAIR      52  41  66 E5        30.05F
GWINNER        CLEAR     64  43  45 CALM      30.06F
SHEYENNE NWR     N/A     65  43  44 CALM      29.95S
ROLLA          FAIR      63  39  42 S10       30.00F
 ***** THE ABOVE OBSERVATIONS ARE NON NWS ARE NOT QUALITY
       CONTROLLED AND MAY MIS-REPORT RAIN FOR SNOW...
$$

  *****  WEATHER ACROSS NORTHERN MINNESOTA  *****

CITY           SKY/WX    TMP DP  RH WIND       PRES   REMARKS
FLAG ISLAND    CLOUDY    45  36  70 NE5       30.05F
WARROAD        MOSUNNY   48  39  71 E8        30.07S
ROSEAU           N/A     50  39  66 CALM      30.05F
HALLOCK        MOSUNNY   52  43  71 N3        30.06F
THF RVR FALLS  SUNNY     52  39  62 NW6       30.06F
BAUDETTE       CLOUDY    47  37  68 NW6       30.06S
WASKISH        CLOUDY    46  43  87 CALM      30.06R
CROOKSTON      SUNNY     55  43  62 N6        30.07S
STEPHEN NDAWN    N/A     54  45  71 N6          N/A
GREENBUSH NDAW   N/A     48  39  71 NE5         N/A
$$
  *****  WEATHER ACROSS CENTRAL AND WEST MINNESOTA  *****

CITY           SKY/WX    TMP DP  RH WIND       PRES   REMARKS
FOSSTON        SUNNY     55  39  54 N5        30.05F
BEMIDJI        SUNNY     51  39  63 N8        30.04S
PARK RAPIDS    SUNNY     56  37  49 NW10      30.02F
ELBOW LAKE     FAIR      61  42  50 NW9G17    30.03F
WADENA         SUNNY     59  41  51 NW9       30.01F
DETROIT LAKES  SUNNY     55  41  58 N6        30.04F
MOORHEAD       SUNNY     61  45  55 N7        30.05F
FERGUS FALLS   SUNNY     63  39  42 NW14      30.04F
MORRIS MN      SUNNY     64  43  45 NW10      30.02F
STAPLES        SUNNY     59  37  44 NW9       30.01F
$$
  *****  WEATHER ELSEWHERE ACROSS MINNESOTA  *****

CITY           SKY/WX    TMP DP  RH WIND       PRES   REMARKS
DULUTH         CLOUDY    50  39  66 N9        29.99S
INTRNTL FALLS  CLOUDY    47  36  65 N8        30.04S
ELY            CLOUDY    46  37  71 NW10      30.00R
CLOQUET        CLOUDY    50  37  62 NW9       30.00S
WHEATON        SUNNY     63  41  45 NW7       30.05F
BRAINERD       SUNNY     54  40  59 N10       30.02F
HIBBING        CLOUDY    49  38  65 NW12      30.01S
ALEXANDRIA     SUNNY     61  39  44 NW13      30.03F
SAINT CLOUD    SUNNY     64  41  42 N12G18    30.00F
MINNEAPOLIS    SUNNY     63  43  48 NW13G18   29.98F
$$

  *****  WEATHER ACROSS SOUTH DAKOTA  *****

CITY           SKY/WX    TMP DP  RH WIND       PRES   REMARKS
SIOUX FALLS    MOSUNNY   69  41  36 W8        30.05F
BROOKINGS      NOT AVBL
WATERTOWN      SUNNY     68  38  33 NW12      30.05F
HURON          SUNNY     69  35  28 CALM      30.06F
SISSETON         N/A     68  41  37 N7        30.03F
ABERDEEN       SUNNY     70  37  29 CALM      30.05F
MITCHELL       SUNNY     69  35  28 SW3       30.07F
PIERRE         SUNNY     71  38  29 SE14      30.03F
MOBRIDGE       SUNNY     70  37  29 S16       30.01F
RAPID CITY     SUNNY     72  42  34 SE17      29.98F
$$

  *****  SOME WEATHER IN NEARBY STATES *****

CITY           SKY/WX    TMP DP  RH WIND       PRES   REMARKS
GLASGOW MT     SUNNY     64  42  44 SE9       29.83F
GREAT FALLS MT SUNNY     75  32  20 S12       29.82F
CHEYENNE WY    SUNNY     70  33  25 S16G24    30.15F
SCOTTSBLUFF NE SUNNY     78  48  34 S12       30.05F
OMAHA NE       SUNNY     70  37  29 VRB7      30.07F
DES MOINES IA  SUNNY     70  41  34 NW13      30.01F
DAVENPORT IA   MOSUNNY   67  42  40 NW17G25   29.93F
CHICAGO IL     PTSUNNY   64  46  52 NW16      29.83F
EAU CLAIRE WI  CLOUDY    57  39  51 N9        29.96R
LA CROSSE WI   SUNNY     65  42  43 NW15      29.92F
$$

  *****  SOME NATIONAL WEATHER *****

CITY           SKY/WX    TMP DP  RH WIND       PRES   REMARKS
LA GUARDIA NY  PTSUNNY   59  34  39 SW5       30.02F
RALEIGH NC     MOSUNNY   69  43  38 SW6G17    30.03F
ATLANTA GA     MOSUNNY   70  49  47 SW7       30.03F
NEW ORLEANS LA MOSUNNY   78  58  49 N9        30.01F
OKLAHOMA CITY  MOSUNNY   80  60  50 NW5       30.03F
ALBUQUERQUE NM PTSUNNY   65  41  41 SW5       30.18F
SALT LAKE CITY MOSUNNY   76  36  23 S9        30.01F
LOS ANGELES CA PTSUNNY   72  61  68 W8        29.94F
BOISE ID       SUNNY     70  36  28 E5        29.84F
SEATTLE WA     CLOUDY    60  55  83 S5        29.77F
$$

*** WEATHER ACROSS MANITOBA...SASKATCHEWAN AND ONTARIO ***
                ***ONTARIO***

CITY           SKY/WX    TMP DP  RH WIND       PRES   REMARKS
GERALDTON      DRIZZLE   37  36  93 N9        29.95R FOG
THUNDER BAY    NOT AVBL
SIOUX LOOKOUT  PTSUNNY   41  34  75 N5        30.05R
TORONTO        LGT RAIN  52  48  87 E5        29.78F FOG
BIG TROUT LK   NOT AVBL
PICKLE LAKE    DRIZZLE   36  34  93 N6        30.05R FOG
DRYDEN         CLOUDY    43  34  70 NW9       30.05R
KENORA         NOT AVBL
$$
                *** MANITOBA***

CITY           SKY/WX    TMP DP  RH WIND       PRES   REMARKS
BRANDON        NOT AVBL
DAUPHIN        SUNNY     52  45  76 E10G17    29.97F
ISLAND LAKE    CLOUDY    39  34  81 SE6       30.10S
PILOT MOUND      N/A     63  41  45 S10G17      N/A
THE PAS        PTSUNNY   46  39  76 SE24G30   29.91F
THOMPSON       DRIZZLE   36  36 100 SE7       30.05F
WINNIPEG       MOSUNNY   48  39  71 SE5       30.07F
LYNN LAKE      CLOUDY    36  36 100 SE17      29.91F
GILLAM         CLOUDY    37  34  87 S5        30.09F
$$
                ***SASKATCHEWAN***

CITY           SKY/WX    TMP DP  RH WIND       PRES   REMARKS
ESTEVAN        MOSUNNY   72  41  33 S13G18    29.88F
KINDERSLEY     NOT AVBL
LLOYDMINSTER   MOSUNNY   63  37  39 SW9       29.60F
PRINCE ALBERT  MOSUNNY   63  43  48 S13       29.69F
REGINA         MOSUNNY   70  45  40 S13       29.80F
YORKTON        SUNNY     66  41  39 SE16      29.85F
N. BATTLEFORD  SUNNY     70  37  30 S12       29.65F
LA RONGE       MOSUNNY   57  43  58 E12G22    29.66F
SASKATOON      NOT AVBL
SWIFT CURRENT  SUNNY     73  36  25 S17G26    29.73F
$$
NOTE: THESE ARE AUTOMATED STATIONS WITH LIMITED QUALITY CONTROL
      "FAIR" INDICATES FEW OR NO CLOUDS BELOW 12,000 FEET WITH NO
      SIGNIFICANT WEATHER AND/OR OBSTRUCTIONS TO VISIBILITY.
      SKY/WX - SKY CONDITION AND SIGNIFICANT WEATHER.
      TMP - AIR TEMPERATURE.    DP   - DEWPOINT TEMPERATURE.
      RH  - RELATIVE HUMIDITY.  PRES - PRESSURE.
      HX  - HEAT INDEX.         WCI  - WIND CHILL INDEX.
$



USA.gov is the U.S. government's official web portal to all federal, state and local government web resources and services.